Location: Edoum�
(0.9447°N, 10.6482°E)
Time: 23:22:41
(UTC+00:00)

Cosmos 1000 Rocket - Pass Details

Date: 07 June 2020
Orbit: 954 x 991 km, 82.9° (Epoch: 10 July)

Event Time Altitude Azimuth Distance (km) Brightness Sun altitude
Rises 03:50:33 0° 350° (N) 3,665 7.7 -19.3°
Reaches altitude 10° 03:53:04 10° 347° (NNW) 2,725 7.0 -18.7°
Maximum altitude 03:59:14 64° 267° (W) 1,087 4.5 -17.3°
Drops below altitude 10° 04:05:29 10° 187° (S) 2,750 6.6 -15.9°
Sets 04:08:02 0° 183° (S) 3,702 7.3 -15.3°
